Tracking 34410 objects as of 16-Jun-2026
HD Live streaming from Space Station
objects crossing your sky now

YAOGAN-39 05B

Track YAOGAN-39 05B now!
10-day predictions
YAOGAN-39 05B is classified as:


NORAD ID: 58558
Int'l Code: 2023-194B
Perigee: 512.7 km
Apogee: 527.6 km
Inclination: 35.0 °
Period: 94.9 minutes
Semi major axis: 6891 km
RCS: Unknown
Launch date: December 10, 2023
Source: People's Republic of China (PRC)
Launch site: Xichang Space Center, China (XSC)
Your satellite tracking list
Your tracking list is empty




NASA's NSSDC Master Catalog

Two Line Element Set (TLE):
1 58558U 23194B   26167.19098037  .00003645  00000-0  17846-3 0  9996
2 58558  34.9928  87.4121 0010764 304.9203  55.0498 15.17622434139942
Source of the keplerian elements: AFSPC